Weather History for KARV - June, 2013

Change the Weather History Date:

Monday, June 3, 2013

  Actual Average Record
Temperature  
Mean Temperature 49 °F -  
Max Temperature 64 °F 70 °F 90 °F (1923)
Min Temperature 34 °F 43 °F 25 °F (1929)
Degree Days  
Heating Degree Days 16    
Moisture  
Dew Point 34 °F    
Average Humidity 57    
Maximum Humidity 95    
Minimum Humidity 27    
Precipitation  
Precipitation 0.00 in - - ()
Sea Level Pressure  
Sea Level Pressure 30.06 in    
Wind  
Wind Speed 3 mph (North)    
Max Wind Speed 13 mph    
Max Gust Speed 23 mph    
Visibility 10 miles    
Events      
Averages and records for this station are not official NWS values.
T = Trace of Precipitation, MM = Missing Value Source: NWS Daily Summary

Daily Weather History Graph

Daily Weather History Graph

Search for Another Location

Airport or City:

Trip Planner

Search our weather history database for the weather conditions in past years. The results will help you decide how hot, cold, wet, or windy it might be!

Date:

Astronomy

Jun. 03, 2013 Rise Set
Actual Time 5:10 AM CDT 8:43 PM CDT
Civil Twilight 4:33 AM CDT 9:21 PM CDT
Nautical Twilight 3:43 AM CDT 10:11 PM CDT
Astronomical Twilight 2:37 AM CDT 11:17 PM CDT
Moon 2:22 AM CDT (6/3) 4:02 PM CDT (6/3)
Length of Visible Light 16h 48m
Length of Day
15h 33m
Waning Crescent, 22% of the Moon is Illuminated
Jun 3
Waning Crescent
Jun 8
New
Jun 16
First Quarter
Jun 23
Full
Jun 29
Last Quarter

Hourly Weather History & Observations

Time (CDT) Temp. Dew Point Humidity Pressure Visibility Wind Dir Wind Speed Gust Speed Precip Events Conditions
12:15 AM 39.6 °F 36.5 °F 89% 30.03 in 10.0 mi Calm Calm - N/A   Clear
12:35 AM 41.5 °F 38.8 °F 90% 30.03 in 10.0 mi Calm Calm - N/A   Clear
12:55 AM 39.2 °F 36.7 °F 91% 30.03 in 10.0 mi Calm Calm - N/A   Clear
1:15 AM 39.2 °F 36.9 °F 91% 30.03 in 10.0 mi Calm Calm - N/A   Clear
1:35 AM 39.2 °F 36.9 °F 91% 30.03 in 10.0 mi Calm Calm - N/A   Clear
1:55 AM 37.8 °F 35.6 °F 92% 30.03 in 10.0 mi Calm Calm - N/A   Clear
2:15 AM 37.9 °F 36.0 °F 93% 30.02 in 10.0 mi Calm Calm - N/A   Clear
2:35 AM 36.9 °F 34.5 °F 91% 30.02 in 10.0 mi Calm Calm - N/A   Clear
2:55 AM 36.5 °F 34.5 °F 93% 30.02 in 10.0 mi Calm Calm - N/A   Clear
3:15 AM 36.5 °F 34.3 °F 92% 30.02 in 10.0 mi Calm Calm - N/A   Clear
3:35 AM 36.5 °F 34.2 °F 91% 30.02 in 10.0 mi Calm Calm - N/A   Clear
3:55 AM 36.5 °F 34.7 °F 93% 30.02 in 10.0 mi Calm Calm - N/A   Clear
4:15 AM 36.5 °F 34.7 °F 93% 30.02 in 10.0 mi Calm Calm - N/A   Clear
4:35 AM 36.5 °F 34.7 °F 93% 30.03 in 10.0 mi Calm Calm - N/A   Clear
4:55 AM 36.5 °F 34.7 °F 93% 30.03 in 3.0 mi Calm Calm - N/A   Clear
5:15 AM 36.5 °F 34.7 °F 93% 30.03 in 0.8 mi Calm Calm - N/A   Mist
5:35 AM 36.5 °F 34.7 °F 93% 30.03 in 10.0 mi Calm Calm - N/A   Clear
5:55 AM 34.0 °F 32.2 °F 93% 30.04 in 4.0 mi Calm Calm - N/A   Clear
6:15 AM 36.5 °F 34.9 °F 94% 30.04 in 2.0 mi Calm Calm - N/A   Clear
6:35 AM 38.8 °F 37.2 °F 94% 30.05 in 5.0 mi Calm Calm - N/A   Clear
6:55 AM 41.5 °F 40.1 °F 95% 30.04 in 10.0 mi Calm Calm - N/A   Clear
7:15 AM 44.1 °F 42.4 °F 94% 30.05 in 10.0 mi Calm Calm - N/A   Clear
7:35 AM 48.9 °F 44.4 °F 84% 30.04 in 10.0 mi Calm Calm - N/A   Clear
7:55 AM 51.8 °F 42.8 °F 71% 30.05 in 10.0 mi WSW 3.5 mph - N/A   Clear
8:15 AM 51.8 °F 39.7 °F 63% 30.05 in 10.0 mi Calm Calm - N/A   Clear
8:35 AM 54.5 °F 38.7 °F 55% 30.05 in 10.0 mi Calm Calm - N/A   Clear
8:55 AM 56.8 °F 38.5 °F 50% 30.06 in 10.0 mi Calm Calm - N/A   Clear
9:15 AM 56.8 °F 35.8 °F 45% 30.06 in 10.0 mi North 9.2 mph - N/A   Clear
9:35 AM 56.8 °F 34.3 °F 43% 30.06 in 10.0 mi North 8.1 mph - N/A   Clear
9:55 AM 57.4 °F 34.9 °F 43% 30.06 in 10.0 mi NNW 4.6 mph - N/A   Clear
10:15 AM 59.4 °F 36.5 °F 43% 30.05 in 10.0 mi North 9.2 mph - N/A   Clear
10:35 AM 59.2 °F 36.3 °F 43% 30.05 in 10.0 mi North 6.9 mph - N/A   Clear
10:55 AM 59.4 °F 36.0 °F 42% 30.06 in 10.0 mi North 3.5 mph - N/A   Clear
11:15 AM 61.9 °F 37.2 °F 40% 30.06 in 10.0 mi NNW 9.2 mph - N/A   Clear
11:35 AM 61.5 °F 36.3 °F 39% 30.06 in 10.0 mi North 10.4 mph 19.6 mph N/A   Clear
11:55 AM 60.8 °F 34.9 °F 38% 30.06 in 10.0 mi NW 8.1 mph - N/A   Clear
12:15 PM 61.9 °F 34.9 °F 36% 30.07 in 10.0 mi WNW 9.2 mph - N/A   Clear
12:35 PM 61.9 °F 35.1 °F 37% 30.06 in 10.0 mi North 3.5 mph 16.1 mph N/A   Clear
12:55 PM 61.9 °F 33.6 °F 35% 30.06 in 10.0 mi North 6.9 mph 10.4 mph N/A   Clear
1:15 PM 62.2 °F 33.6 °F 34% 30.06 in 10.0 mi NW 9.2 mph 17.3 mph N/A   Clear
1:35 PM 63.3 °F 33.1 °F 32% 30.06 in 10.0 mi WNW 10.4 mph 18.4 mph N/A   Clear
1:55 PM 63.1 °F 32.5 °F 32% 30.05 in 10.0 mi North 4.6 mph 18.4 mph N/A   Clear
2:15 PM 63.9 °F 32.9 °F 31% 30.04 in 10.0 mi NNW 4.6 mph 16.1 mph N/A   Clear
2:35 PM 64.2 °F 33.6 °F 32% 30.05 in 10.0 mi NNW 9.2 mph - N/A   Clear
2:55 PM 63.1 °F 32.7 °F 32% 30.06 in 10.0 mi NNW 9.2 mph 23.0 mph N/A   Clear
3:15 PM 63.3 °F 32.9 °F 32% 30.05 in 10.0 mi North 8.1 mph 16.1 mph N/A   Clear
3:35 PM 63.9 °F 33.1 °F 32% 30.05 in 10.0 mi NNW 11.5 mph 17.3 mph N/A   Clear
3:55 PM 63.1 °F 32.0 °F 31% 30.05 in 10.0 mi NNW 8.1 mph - N/A   Clear
4:15 PM 62.4 °F 30.9 °F 31% 30.05 in 10.0 mi North 8.1 mph - N/A   Clear
4:35 PM 62.8 °F 29.8 °F 29% 30.05 in 10.0 mi North 11.5 mph 17.3 mph N/A   Clear
4:55 PM 63.3 °F 28.8 °F 27% 30.05 in 10.0 mi NNE 4.6 mph 17.3 mph N/A   Clear
5:15 PM 63.0 °F 30.4 °F 29% 30.05 in 10.0 mi North 10.4 mph - N/A   Clear
5:35 PM 62.1 °F 31.3 °F 31% 30.04 in 10.0 mi North 12.7 mph 17.3 mph N/A   Clear
5:55 PM 61.2 °F 32.4 °F 34% 30.05 in 10.0 mi North 9.2 mph - N/A   Clear
6:15 PM 61.0 °F 32.2 °F 34% 30.06 in 10.0 mi NNE 8.1 mph - N/A   Clear
6:35 PM 59.5 °F 30.7 °F 34% 30.06 in 10.0 mi NNE 10.4 mph - N/A   Clear
6:55 PM 59.4 °F 28.8 °F 31% 30.06 in 10.0 mi NNE 10.4 mph 17.3 mph N/A   Clear
7:15 PM 58.5 °F 30.4 °F 34% 30.06 in 10.0 mi North 9.2 mph - N/A   Clear
7:35 PM 56.8 °F 30.0 °F 36% 30.07 in 10.0 mi NE 4.6 mph - N/A   Clear
7:55 PM 56.8 °F 28.2 °F 33% 30.07 in 10.0 mi NNE 5.8 mph - N/A   Clear
8:15 PM 56.8 °F 29.5 °F 35% 30.06 in 10.0 mi East 3.5 mph - N/A   Clear
8:35 PM 56.8 °F 28.4 °F 34% 30.08 in 10.0 mi NE 3.5 mph - N/A   Clear
8:55 PM 54.5 °F 29.8 °F 39% 30.09 in 10.0 mi Calm Calm - N/A   Clear
9:15 PM 53.4 °F 30.4 °F 41% 30.10 in 10.0 mi NNE 3.5 mph - N/A   Clear
9:35 PM 51.8 °F 31.8 °F 47% 30.11 in 10.0 mi Calm Calm - N/A   Clear
9:55 PM 51.8 °F 33.3 °F 49% 30.13 in 10.0 mi Calm Calm - N/A   Clear
10:15 PM 49.3 °F 35.2 °F 58% 30.12 in 10.0 mi Calm Calm - N/A   Clear
10:35 PM 51.8 °F 36.1 °F 55% 30.12 in 10.0 mi Calm Calm - N/A   Scattered Clouds
10:55 PM 50.9 °F 38.3 °F 62% 30.13 in 10.0 mi Calm Calm - N/A   Scattered Clouds
11:15 PM 49.8 °F 36.7 °F 61% 30.13 in 10.0 mi Calm Calm - N/A   Clear
11:35 PM 51.8 °F 29.8 °F 43% 30.13 in 10.0 mi Calm Calm - N/A   Scattered Clouds
11:55 PM 51.8 °F 34.2 °F 51% 30.13 in 10.0 mi Calm Calm - N/A   Scattered Clouds